{"data":{"norad_id":58766,"epoch":"2026-09-20T04:13:27.141312Z","epoch_age_seconds":180477,"freshness":"STALE","line1":"1 58766U 24011B   26263.17600858 -.00001070  00000+0 -20553-4 0  9992","line2":"2 58766  53.1637 187.0208 0000473 147.8196 212.2836 15.34384079150087","mean_motion":15.34384079,"eccentricity":4.73e-5,"inclination_deg":53.1637,"raan_deg":187.0208,"arg_perigee_deg":147.8196,"mean_anomaly_deg":212.2836,"bstar":-2.0553e-5,"rev_number":15008,"period_min":93.848731859789,"perigee_km":462.42698720183,"apogee_km":463.07413516512,"semimajor_km":6840.8875611835,"source":"CELESTRAK","updated_at":"2026-09-21T09:00:33.956828Z"}}